Location: Caltech
(34.1382°N, 118.1253°W)
Time: 06:41:32
(UTC-07:00)

ALOS - Visible Passes

Search period start: 24 August 2016 00:00
Search period end: 03 September 2016 00:00
Orbit: 684 x 687 km, 97.9° (Epoch: 23 August)

Date Brightness Start Highest point End Pass type
(mag) Time Alt. Az. Time Alt. Az. Time Alt. Az.
24 Aug 2.5 20:05:33 10° SSE 20:10:04 52° ENE 20:14:37 10° N visible
24 Aug 5.1 21:45:52 10° WSW 21:47:46 12° W 21:49:40 10° WNW visible
25 Aug 2.8 20:43:06 10° S 20:47:41 58° W 20:52:18 10° NNW visible
26 Aug 4.5 21:21:54 10° SW 21:25:28 22° W 21:29:04 10° NW visible
27 Aug 2.2 20:20:54 10° SSE 20:25:34 80° ENE 20:30:15 10° N visible
28 Aug 3.6 20:58:55 10° SSW 21:03:15 38° W 21:07:36 10° NNW visible
29 Aug 2.6 19:59:05 10° SE 20:03:31 45° ENE 20:07:57 10° N visible
29 Aug 5.0 21:38:35 10° SW 21:41:07 14° W 21:43:40 10° WNW visible
30 Aug 2.6 20:36:27 10° S 20:41:05 68° W 20:45:44 10° NNW visible
31 Aug 3.3 19:37:40 10° SE 19:41:31 26° ENE 19:45:23 10° NNE visible
31 Aug 4.3 21:15:01 10° SSW 21:18:50 25° W 21:22:42 10° NW visible
01 Sep 2.2 20:14:22 10° SSE 20:18:58 68° ENE 20:23:37 10° N visible
02 Sep 3.3 20:52:11 10° S 20:56:38 44° W 21:01:06 10° NNW visible
